[[{"header":{"parameterUnit":"m.s-1","parameterCategory":1,"la1":30.2991,"la2":30.254,"lo1":-89.0895,"lo2":-89.0444,"dy":0.0017,"dx":0.0017,"nx":28,"ny":28,"refTime":"2023-09-13T03:00:00:Z","depth":0,"parameterNumber":2,"parameterNumberName":"U-component_of_WINDS"},"data":[0,0,0,0,0,0,0,0,0,0,0,0,0,0,0,0,0,0,0,0,0,0,0,0,0,0,0,0,0,0,0,0,0,0,0,0,0,0,0,0,0,0,0,0,0,0,0,0,0,0,0,0,0,0,0,0,0,0,-0.1038,-0.1037,0,-0.1005,-0.1005,-0.1004,-0.1018,-0.1019,-0.1019,-0.102,-0.0983,-0.0981,-0.098,0,0,0,0,0,0,0,0,0,0,0,0,0,-0.1107,-0.1106,-0.1038,-0.1037,-0.1037,-0.1005,-0.1005,-0.1004,-0.1018,-0.1019,-0.102,-0.102,-0.0984,-0.0982,-0.098,0,0,0,0,0,0,0,0,0,0,0,0,0,-0.1076,-0.1105,-0.1038,-0.104,-0.104,-0.1005,-0.1005,-0.1004,-0.1017,-0.1019,-0.102,-0.1021,-0.0984,-0.0982,-0.0979,-0.094,0,0,-0.0971,-0.097,0,0,0,0,0,0,0,0,-0.1078,-0.1073,-0.104,-0.104,-0.1039,-0.1017,-0.1016,-0.0982,-0.1017,-0.1026,-0.102,-0.1021,-0.0993,-0.099,-0.0981,-0.0938,-0.0936,-0.0971,-0.097,-0.0968,-0.0968,0,0,0,0,0,0,0,-0.108,-0.1075,-0.1025,-0.1039,-0.1039,-0.1041,-0.1038,-0.1009,-0.1003,-0.1025,-0.1026,-0.1022,-0.0993,-0.0983,-0.098,-0.0936,-0.0971,-0.0969,-0.0967,-0.0966,-0.0856,-0.0854,0,0,0,0,0,0,-0.1083,-0.1077,-0.1026,-0.1024,-0.1062,-0.1039,-0.1035,-0.1023,-0.1003,-0.1002,-0.1021,-0.1023,-0.0987,-0.0983,-0.0979,-0.0929,-0.0969,-0.0966,-0.0965,-0.0857,-0.0855,-0.0854,0,0,0,0,0,0,-0.1084,-0.1078,-0.1027,-0.105,-0.1044,-0.1036,-0.1022,-0.1022,-0.1012,-0.1001,-0.0999,-0.1013,-0.0988,-0.0983,-0.0949,-0.0928,-0.0965,-0.0963,-0.0859,-0.0857,-0.0855,-0.0831,0,0,0,0,0,0,-0.1086,-0.1078,-0.1064,-0.105,-0.1043,-0.0999,-0.1021,-0.102,-0.1008,-0.101,-0.0992,-0.099,-0.0989,-0.0953,-0.0946,-0.0925,-0.0961,-0.0861,-0.0858,-0.0855,-0.0834,-0.0829,-0.0824,0,0,0,0,0,-0.1088,-0.1059,-0.1064,-0.1057,-0.1025,-0.0998,-0.0993,-0.0993,-0.1006,-0.0991,-0.0983,-0.0991,-0.0932,-0.0949,-0.0942,-0.092,-0.0862,-0.0859,-0.0856,-0.0836,-0.083,-0.0824,0,0,0,0,0,0,-0.107,-0.1057,-0.1062,-0.1028,-0.1014,-0.1,-0.0981,-0.0987,-0.0968,-0.097,-0.097,-0.0965,-0.093,-0.0922,-0.0942,-0.0879,-0.0899,-0.0894,-0.0886,-0.088,-0.0875,-0.0877,-0.0958,0,0,0,0,0,-0.1063,-0.1043,-0.1032,-0.1002,-0.0995,-0.0989,-0.0977,-0.0978,-0.0963,-0.0957,-0.0947,-0.0931,-0.0909,-0.0894,-0.0873,-0.0833,-0.0828,-0.0814,-0.0809,-0.0805,-0.0801,-0.0776,-0.0769,-0.0844,-0.0844,-0.0844,0,0,-0.1046,-0.1036,-0.1023,-0.0998,-0.0987,-0.0965,-0.0984,-0.096,-0.0943,-0.0953,-0.092,-0.0912,-0.0895,-0.0857,-0.084,-0.0849,-0.0779,-0.0801,-0.0798,-0.0796,-0.0772,-0.0765,-0.0759,-0.0842,-0.0842,-0.0842,0,0,-0.1003,-0.0995,-0.0968,-0.0957,-0.0941,-0.0937,-0.0931,-0.0916,-0.0911,-0.0879,-0.0885,-0.0864,-0.0827,-0.0813,-0.0801,-0.0752,-0.0757,-0.0745,-0.0719,-0.0695,-0.0689,-0.0684,-0.0664,-0.0657,-0.0741,-0.0741,-0.074,0,-0.0984,-0.0952,-0.0954,-0.0928,-0.0916,-0.0925,-0.0897,-0.0886,-0.0863,-0.0853,-0.0864,-0.0816,-0.0805,-0.0763,-0.075,-0.0741,-0.0732,-0.0746,-0.069,-0.0685,-0.068,-0.0661,-0.0654,-0.0739,-0.0739,-0.0739,-0.0739,0,-0.0928,-0.0905,-0.0885,-0.0864,-0.0849,-0.0823,-0.0818,-0.0803,-0.0805,-0.0799,-0.0765,-0.0752,-0.0727,-0.0717,-0.0719,-0.0675,-0.0681,-0.0691,-0.071,-0.0671,-0.0653,-0.0646,-0.0737,-0.0737,-0.0738,-0.0738,0,0,-0.0873,-0.0852,-0.0845,-0.0834,-0.0816,-0.0798,-0.0771,-0.0748,-0.0733,-0.0717,-0.0693,-0.066,-0.0669,-0.0655,-0.0655,-0.0634,-0.0593,-0.0647,-0.0646,-0.0635,-0.0541,-0.0532,-0.0523,-0.0597,-0.0596,-0.0595,-0.0541,0,-0.0828,-0.0781,-0.0781,-0.0738,-0.0715,-0.0723,-0.0699,-0.0684,-0.0678,-0.0657,-0.065,-0.0625,-0.064,-0.0632,-0.0612,-0.0603,-0.0574,-0.0607,-0.0572,-0.0571,-0.0574,-0.0514,-0.0505,-0.0455,-0.0535,-0.0533,-0.0533,0,-0.0769,-0.0751,-0.0705,-0.0689,-0.0679,-0.0658,-0.0635,-0.0616,-0.0599,-0.0595,-0.058,-0.0582,-0.0552,-0.0573,-0.053,-0.0553,-0.0538,-0.0532,-0.053,-0.0525,-0.0548,-0.0506,-0.044,-0.0432,-0.0522,-0.0523,-0.0524,0,-0.073,-0.0695,-0.0662,-0.0653,-0.0634,-0.0618,-0.0609,-0.0594,-0.0579,-0.0559,-0.0549,-0.0526,-0.0512,-0.0493,-0.0488,-0.0504,-0.0444,-0.0466,-0.0439,-0.0439,-0.0425,-0.0425,-0.0353,-0.0419,-0.0419,-0.0419,-0.0419,0,-0.0679,-0.065,-0.0645,-0.0625,-0.0592,-0.0591,-0.0558,-0.055,-0.0535,-0.0512,-0.0518,-0.0495,-0.0491,-0.0468,-0.0464,-0.0427,-0.0422,-0.0417,-0.0415,-0.0415,-0.0415,-0.0404,-0.0407,-0.0417,-0.0418,-0.0418,-0.0418,0,-0.063,-0.0626,-0.0591,-0.0575,-0.057,-0.0547,-0.0533,-0.0512,-0.0506,-0.0477,-0.047,-0.046,-0.0432,-0.0426,-0.0393,-0.039,-0.0346,-0.0349,-0.0352,-0.0352,-0.0324,-0.0326,-0.0241,-0.0229,-0.0304,-0.0304,-0.0303,0,-0.0597,-0.0575,-0.0557,-0.0542,-0.0532,-0.0509,-0.0494,-0.0492,-0.0476,-0.0453,-0.0435,-0.0408,-0.0386,-0.0341,-0.0329,-0.0303,-0.0305,-0.0277,-0.0301,-0.03,-0.0301,-0.0302,-0.0299,-0.0272,-0.0271,-0.027,-0.027,0,-0.0537,-0.0535,-0.0514,-0.0492,-0.0474,-0.0456,-0.0439,-0.0426,-0.0421,-0.0402,-0.0374,-0.0357,-0.0323,-0.0295,-0.0269,-0.0258,-0.0262,-0.0262,-0.0254,-0.0253,-0.0254,-0.0251,-0.0337,-0.0264,-0.0265,-0.0265,-0.0265,-0.0266,-0.0493,-0.0473,-0.0457,-0.0432,-0.0419,-0.0403,-0.0382,-0.0374,-0.0351,-0.0323,-0.0323,-0.0292,-0.0273,-0.0238,-0.0225,-0.0199,-0.0208,-0.0197,-0.0193,-0.019,-0.0186,-0.026,-0.0195,-0.0195,-0.0195,-0.0195,-0.0195,0,-0.0432,-0.0422,-0.0399,-0.0375,-0.0355,-0.0362,-0.0343,-0.0325,-0.0298,-0.0281,-0.0259,-0.0225,-0.0198,-0.0184,-0.0156,-0.0138,-0.0139,-0.013,-0.0131,-0.0128,-0.0182,-0.0191,-0.013,-0.013,-0.013,-0.013,-0.013,-0.013,-0.0397,-0.0363,-0.0359,-0.0317,-0.0307,-0.0277,-0.0265,-0.0249,-0.0235,-0.0197,-0.0175,-0.0167,-0.015,-0.0121,-0.0095,-0.0091,-0.008,-0.007,-0.0067,-0.0118,-0.0124,-0.013,-0.0138,-0.0068,-0.0068,-0.0015,-0.0014,-0.0014]},{"header":{"parameterUnit":"m.s-1","parameterCategory":1,"la1":30.2991,"la2":30.254,"lo1":-89.0895,"lo2":-89.0444,"dy":0.0017,"dx":0.0017,"nx":28,"ny":28,"refTime":"2023-09-13T03:00:00:Z","depth":0,"parameterNumber":3,"parameterNumberName":"V-component_of_WINDS"},"data":[0,0,0,0,0,0,0,0,0,0,0,0,0,0,0,0,0,0,0,0,0,0,0,0,0,0,0,0,0,0,0,0,0,0,0,0,0,0,0,0,0,0,0,0,0,0,0,0,0,0,0,0,0,0,0,0,0,0,-1.0966,-1.0966,0,-1.0969,-1.0969,-1.0969,-1.098,-1.098,-1.0981,-1.0981,-1.0982,-1.0982,-1.0982,0,0,0,0,0,0,0,0,0,0,0,0,0,-1.0966,-1.0966,-1.0966,-1.0966,-1.0966,-1.0969,-1.0969,-1.0969,-1.098,-1.098,-1.0981,-1.0981,-1.0982,-1.0982,-1.0982,0,0,0,0,0,0,0,0,0,0,0,0,0,-1.0967,-1.0966,-1.0966,-1.0971,-1.0972,-1.0969,-1.0969,-1.097,-1.098,-1.098,-1.0981,-1.0981,-1.0982,-1.0982,-1.0982,-1.0973,0,0,-1.0981,-1.0981,0,0,0,0,0,0,0,0,-1.0967,-1.0967,-1.0971,-1.0971,-1.0972,-1.0975,-1.097,-1.0971,-1.098,-1.0977,-1.0981,-1.0981,-1.0979,-1.0979,-1.0979,-1.0973,-1.0973,-1.0981,-1.0981,-1.0981,-1.0981,0,0,0,0,0,0,0,-1.0967,-1.0967,-1.0967,-1.0971,-1.0971,-1.0973,-1.0974,-1.097,-1.0976,-1.0977,-1.0978,-1.0978,-1.098,-1.0979,-1.0979,-1.0973,-1.0981,-1.0981,-1.0981,-1.0981,-1.0961,-1.096,0,0,0,0,0,0,-1.0966,-1.0967,-1.0967,-1.0967,-1.097,-1.0973,-1.0974,-1.0973,-1.0976,-1.0977,-1.0978,-1.0979,-1.098,-1.098,-1.0979,-1.0969,-1.0981,-1.0981,-1.098,-1.0961,-1.096,-1.096,0,0,0,0,0,0,-1.0966,-1.0966,-1.0967,-1.0967,-1.0967,-1.0973,-1.0972,-1.0973,-1.0973,-1.0977,-1.0978,-1.0977,-1.098,-1.098,-1.0975,-1.097,-1.098,-1.098,-1.0961,-1.0961,-1.096,-1.0949,0,0,0,0,0,0,-1.0966,-1.0966,-1.0963,-1.0967,-1.0967,-1.0963,-1.0972,-1.0973,-1.0973,-1.0974,-1.0976,-1.0977,-1.098,-1.0975,-1.0975,-1.0969,-1.098,-1.0962,-1.0961,-1.096,-1.095,-1.0948,-1.0947,0,0,0,0,0,-1.0966,-1.0959,-1.0963,-1.0963,-1.0964,-1.0962,-1.0962,-1.0967,-1.0972,-1.0969,-1.0972,-1.0976,-1.097,-1.0975,-1.0974,-1.0969,-1.0962,-1.0961,-1.096,-1.0951,-1.0948,-1.0947,0,0,0,0,0,0,-1.0953,-1.096,-1.0964,-1.0958,-1.096,-1.0964,-1.096,-1.0965,-1.0964,-1.0965,-1.0971,-1.0971,-1.0966,-1.0967,-1.0971,-1.096,-1.0967,-1.0966,-1.096,-1.0958,-1.0956,-1.0956,-1.098,0,0,0,0,0,-1.095,-1.0949,-1.0954,-1.0949,-1.0949,-1.0955,-1.0954,-1.0958,-1.0959,-1.096,-1.0962,-1.0963,-1.0961,-1.096,-1.0958,-1.095,-1.0951,-1.0946,-1.0945,-1.0944,-1.0942,-1.0938,-1.0936,-1.0957,-1.0957,-1.0957,0,0,-1.0943,-1.0946,-1.0945,-1.0946,-1.0948,-1.0946,-1.0955,-1.0952,-1.0951,-1.0959,-1.0955,-1.0957,-1.0958,-1.0951,-1.0949,-1.0952,-1.0937,-1.0942,-1.0941,-1.0941,-1.0937,-1.0935,-1.0934,-1.0957,-1.0957,-1.0957,0,0,-1.0928,-1.0931,-1.0927,-1.0928,-1.0931,-1.0935,-1.0934,-1.0938,-1.094,-1.0936,-1.0942,-1.094,-1.0937,-1.0938,-1.0938,-1.0925,-1.0929,-1.0924,-1.0915,-1.0911,-1.091,-1.0908,-1.0903,-1.0902,-1.0923,-1.0923,-1.0923,0,-1.0918,-1.0916,-1.0924,-1.0921,-1.0921,-1.093,-1.0926,-1.0927,-1.0928,-1.0928,-1.0932,-1.0929,-1.0931,-1.0925,-1.0922,-1.0921,-1.092,-1.0923,-1.091,-1.0908,-1.0907,-1.0902,-1.0901,-1.0922,-1.0922,-1.0923,-1.0923,0,-1.0904,-1.0903,-1.0899,-1.0902,-1.0902,-1.0898,-1.0904,-1.0903,-1.0908,-1.0911,-1.0907,-1.0909,-1.0908,-1.0907,-1.0911,-1.0902,-1.0904,-1.0909,-1.0915,-1.0904,-1.09,-1.0898,-1.0922,-1.0922,-1.0922,-1.0922,0,0,-1.088,-1.0888,-1.0887,-1.0888,-1.0893,-1.0891,-1.0888,-1.0888,-1.0887,-1.0889,-1.0886,-1.0884,-1.0889,-1.0888,-1.0892,-1.0889,-1.0879,-1.0894,-1.0895,-1.0891,-1.0868,-1.0864,-1.0862,-1.0882,-1.0882,-1.0881,-1.0868,0,-1.0867,-1.0862,-1.0869,-1.0863,-1.0862,-1.0871,-1.0868,-1.087,-1.0873,-1.0872,-1.0875,-1.0874,-1.088,-1.088,-1.0878,-1.088,-1.0874,-1.0882,-1.0879,-1.0878,-1.0877,-1.086,-1.0855,-1.0843,-1.0867,-1.0866,-1.0866,0,-1.0849,-1.0851,-1.0845,-1.0851,-1.085,-1.0848,-1.0849,-1.0848,-1.0851,-1.0853,-1.0854,-1.0859,-1.0856,-1.0863,-1.0859,-1.0864,-1.0863,-1.0864,-1.0864,-1.0863,-1.0871,-1.0858,-1.0839,-1.0837,-1.0864,-1.0864,-1.0864,0,-1.0832,-1.0833,-1.083,-1.0831,-1.0837,-1.0835,-1.0837,-1.084,-1.084,-1.0841,-1.0841,-1.0842,-1.0841,-1.0841,-1.0846,-1.0851,-1.0841,-1.0849,-1.0843,-1.0843,-1.0839,-1.0839,-1.0819,-1.084,-1.084,-1.084,-1.084,0,-1.0816,-1.0811,-1.0822,-1.082,-1.0815,-1.0823,-1.0819,-1.0822,-1.0825,-1.0823,-1.0831,-1.0829,-1.0836,-1.0835,-1.0839,-1.0834,-1.0834,-1.0836,-1.0837,-1.0835,-1.0834,-1.0834,-1.0834,-1.084,-1.084,-1.084,-1.084,0,-1.0795,-1.0802,-1.0799,-1.0806,-1.0807,-1.0804,-1.0809,-1.0807,-1.0812,-1.0809,-1.0809,-1.0816,-1.0815,-1.082,-1.082,-1.0822,-1.0816,-1.0818,-1.0815,-1.0816,-1.0809,-1.0809,-1.0787,-1.0784,-1.0807,-1.0807,-1.0807,0,-1.0783,-1.0781,-1.0788,-1.0788,-1.079,-1.0789,-1.079,-1.0798,-1.0798,-1.0801,-1.0799,-1.0799,-1.0799,-1.0797,-1.0801,-1.0801,-1.0803,-1.0795,-1.0803,-1.0801,-1.0802,-1.0802,-1.0802,-1.0793,-1.0793,-1.0793,-1.0793,0,-1.0762,-1.0766,-1.0767,-1.0769,-1.077,-1.0771,-1.0774,-1.0773,-1.0782,-1.0781,-1.0781,-1.0781,-1.0782,-1.0781,-1.0782,-1.0784,-1.0789,-1.0791,-1.0789,-1.0786,-1.0784,-1.0785,-1.081,-1.0791,-1.0791,-1.0791,-1.0791,-1.0791,-1.0745,-1.0743,-1.0748,-1.0749,-1.0752,-1.0754,-1.0753,-1.0758,-1.0758,-1.0759,-1.0764,-1.0763,-1.0766,-1.0768,-1.0769,-1.0768,-1.0772,-1.077,-1.0769,-1.0768,-1.0767,-1.0785,-1.0768,-1.0769,-1.0769,-1.0769,-1.0769,0,-1.0724,-1.0728,-1.0729,-1.0732,-1.0733,-1.074,-1.0743,-1.0742,-1.0742,-1.0745,-1.0745,-1.0745,-1.0745,-1.075,-1.075,-1.0748,-1.0751,-1.0748,-1.0748,-1.0748,-1.0764,-1.0765,-1.0746,-1.0746,-1.0746,-1.0746,-1.0746,-1.0746,-1.0713,-1.071,-1.0715,-1.0713,-1.0717,-1.0717,-1.0718,-1.072,-1.0723,-1.0722,-1.0723,-1.0726,-1.073,-1.0731,-1.0731,-1.0733,-1.0732,-1.0728,-1.073,-1.0745,-1.0747,-1.0749,-1.075,-1.0728,-1.0728,-1.0715,-1.0714,-1.0714]}]]